Location: Bu�n Treun
(12.1333°N, 108.3167°E)
Time: 08:38:58
(UTC+00:00)

N. Korean satellite - Pass Details

Date: 27 June 2021
Orbit: 451 x 497 km, 97.2° (Epoch: 27 July)

Event Time Altitude Azimuth Distance (km) Brightness Sun altitude
Rises 21:47:44 0° 11° (N) 2,573 10.8 -9.1°
Reaches altitude 10° 21:49:48 10° 11° (NNE) 1,692 9.9 -8.6°
Maximum altitude 21:53:27 88° 98° (E) 501 6.6 -7.8°
Drops below altitude 10° 21:57:06 10° 190° (S) 1,691 9.0 -7.0°
Sets 21:59:11 0° 191° (S) 2,570 9.9 -6.6°
